* Astronomy

Members Login
Username 
 
Password 
    Remember Me  
Post Info TOPIC: Asteroid 2012 AB3


L

Posts: 131433
Date:
Asteroid 2012 AB3
Permalink  
 


Orbital elements:
2012 AB3                                                 Earth MOID = 0.0347 AU
Epoch 2012 Mar. 14.0 TT = JDT 2456000.5                 MPC
M  26.13802              (2000.0)            P               Q
n   0.25774490     Peri.  310.95002     +0.43704947     -0.89057210
a   2.4453592      Node   112.71766     +0.86080294     +0.37354597
e   0.6212914      Incl.    7.84928     +0.26077971     +0.25950867
P   3.82           H   24.0           G   0.15           U   8

MPEC 2012 - A27



__________________
Page 1 of 1  sorted by
 
Quick Reply

Please log in to post quick replies.



Create your own FREE Forum
Report Abuse
Powered by ActiveBoard